Time,TemperatureF,DewpointF,PressureIn,WindDirection,WindDirectionDegrees,WindSpeedMPH,WindSpeedGustMPH,Humidity,HourlyPrecipIn,Conditions,Clouds,dailyrainin,SoftwareType,DateUTC
2013-09-11 00:12:00,57.1,-43.0,29.86,WSW,246,13.0,19.0,1,0.00,,,0.00,weatherlink.com 1.10,2013-09-11 07:12:00,
2013-09-11 00:27:00,57.0,-43.0,29.87,WNW,284,9.0,15.0,1,0.00,,,0.00,weatherlink.com 1.10,2013-09-11 07:27:00,
2013-09-11 00:42:00,57.0,-43.0,29.87,WSW,252,12.0,17.0,1,0.00,,,0.00,weatherlink.com 1.10,2013-09-11 07:42:00,
2013-09-11 00:57:00,57.0,-43.0,29.87,WSW,238,11.0,17.0,1,0.00,,,0.00,weatherlink.com 1.10,2013-09-11 07:57:00,
2013-09-11 01:12:00,57.0,-43.0,29.87,WSW,243,9.0,13.0,1,0.00,,,0.00,weatherlink.com 1.10,2013-09-11 08:12:00,
2013-09-11 01:27:00,57.0,-43.0,29.87,SW,231,11.0,14.0,1,0.00,,,0.00,weatherlink.com 1.10,2013-09-11 08:27:00,
2013-09-11 01:42:00,56.9,-44.0,29.87,West,260,11.0,13.0,1,0.00,,,0.00,weatherlink.com 1.10,2013-09-11 08:42:00,
2013-09-11 01:57:00,57.0,-43.0,29.87,SW,233,12.0,14.0,1,0.00,,,0.00,weatherlink.com 1.10,2013-09-11 08:57:00,
2013-09-11 02:12:00,56.8,-44.0,29.87,SW,225,8.0,15.0,1,0.00,,,0.00,weatherlink.com 1.10,2013-09-11 09:12:00,
2013-09-11 02:27:00,56.9,-44.0,29.87,WSW,256,10.0,18.0,1,0.00,,,0.00,weatherlink.com 1.10,2013-09-11 09:27:00,
2013-09-11 02:42:00,56.9,-44.0,29.87,NW,323,4.0,14.0,1,0.00,,,0.00,weatherlink.com 1.10,2013-09-11 09:42:00,
2013-09-11 02:58:00,56.9,-44.0,29.87,SW,224,8.0,13.0,1,0.00,,,0.00,weatherlink.com 1.10,2013-09-11 09:58:00,
2013-09-11 03:13:00,56.9,-44.0,29.88,West,269,12.0,14.0,1,0.00,,,0.00,weatherlink.com 1.10,2013-09-11 10:13:00,
2013-09-11 03:28:00,56.8,-44.0,29.88,West,269,7.0,12.0,1,0.00,,,0.00,weatherlink.com 1.10,2013-09-11 10:28:00,
2013-09-11 03:43:00,56.7,-44.0,29.88,SW,235,8.0,12.0,1,0.00,,,0.00,weatherlink.com 1.10,2013-09-11 10:43:00,
2013-09-11 03:58:00,56.7,-44.0,29.88,SW,218,6.0,12.0,1,0.00,,,0.00,weatherlink.com 1.10,2013-09-11 10:58:00,
2013-09-11 04:13:00,56.7,-44.0,29.88,WSW,248,8.0,14.0,1,0.00,,,0.00,weatherlink.com 1.10,2013-09-11 11:13:00,
2013-09-11 04:28:00,56.7,-44.0,29.88,WSW,240,8.0,13.0,1,0.00,,,0.00,weatherlink.com 1.10,2013-09-11 11:28:00,
2013-09-11 04:43:00,56.6,-44.0,29.88,WSW,239,8.0,13.0,1,0.00,,,0.00,weatherlink.com 1.10,2013-09-11 11:43:00,
2013-09-11 04:58:00,56.6,-44.0,29.89,West,263,9.0,12.0,1,0.00,,,0.00,weatherlink.com 1.10,2013-09-11 11:58:00,
2013-09-11 05:13:00,56.6,-44.0,29.89,SW,218,6.0,13.0,1,0.00,,,0.00,weatherlink.com 1.10,2013-09-11 12:13:00,
2013-09-11 05:28:00,56.7,-44.0,29.90,SW,219,6.0,9.0,1,0.00,,,0.00,weatherlink.com 1.10,2013-09-11 12:28:00,
2013-09-11 05:43:00,56.5,-44.0,29.90,WSW,252,9.0,11.0,1,0.00,,,0.00,weatherlink.com 1.10,2013-09-11 12:43:00,
2013-09-11 05:58:00,56.6,-44.0,29.91,SW,231,8.0,12.0,1,0.00,,,0.00,weatherlink.com 1.10,2013-09-11 12:58:00,
2013-09-11 06:14:00,56.6,-44.0,29.91,SW,231,8.0,12.0,1,0.00,,,0.00,weatherlink.com 1.10,2013-09-11 13:14:00,
2013-09-11 06:29:00,56.7,-44.0,29.92,WSW,246,8.0,12.0,1,0.00,,,0.00,weatherlink.com 1.10,2013-09-11 13:29:00,
2013-09-11 06:44:00,56.7,-44.0,29.92,West,269,8.0,12.0,1,0.00,,,0.00,weatherlink.com 1.10,2013-09-11 13:44:00,
2013-09-11 06:59:00,56.6,-44.0,29.93,West,260,5.0,13.0,1,0.00,,,0.00,weatherlink.com 1.10,2013-09-11 13:59:00,
2013-09-11 07:14:00,56.7,-44.0,29.93,WSW,240,5.0,12.0,1,0.00,,,0.00,weatherlink.com 1.10,2013-09-11 14:14:00,
2013-09-11 07:29:00,56.7,-44.0,29.94,SW,222,7.0,13.0,1,0.00,,,0.00,weatherlink.com 1.10,2013-09-11 14:29:00,
2013-09-11 07:44:00,56.7,-44.0,29.94,WSW,243,6.0,9.0,1,0.00,,,0.00,weatherlink.com 1.10,2013-09-11 14:44:00,
2013-09-11 07:59:00,56.7,-44.0,29.93,WSW,257,7.0,12.0,1,0.00,,,0.00,weatherlink.com 1.10,2013-09-11 14:59:00,
2013-09-11 08:14:00,56.7,-44.0,29.94,WSW,248,11.0,14.0,1,0.00,,,0.00,weatherlink.com 1.10,2013-09-11 15:14:00,
2013-09-11 08:29:00,56.9,-44.0,29.94,SW,222,8.0,15.0,1,0.00,,,0.00,weatherlink.com 1.10,2013-09-11 15:29:00,
2013-09-11 08:44:00,57.0,-43.0,29.95,WSW,252,8.0,10.0,1,0.00,,,0.00,weatherlink.com 1.10,2013-09-11 15:44:00,
2013-09-11 08:59:00,57.2,-43.0,29.95,SW,225,8.0,10.0,1,0.00,,,0.00,weatherlink.com 1.10,2013-09-11 15:59:00,
2013-09-11 09:14:00,57.4,-43.0,29.95,West,260,4.0,8.0,1,0.00,,,0.00,weatherlink.com 1.10,2013-09-11 16:14:00,
2013-09-11 09:30:00,57.8,-43.0,29.96,WSW,253,3.0,10.0,1,0.00,,,0.00,weatherlink.com 1.10,2013-09-11 16:30:00,
2013-09-11 09:45:00,58.0,-43.0,29.96,WSW,252,4.0,10.0,1,0.00,,,0.00,weatherlink.com 1.10,2013-09-11 16:45:00,
2013-09-11 10:00:00,58.6,-43.0,29.96,WSW,238,9.0,10.0,1,0.00,,,0.00,weatherlink.com 1.10,2013-09-11 17:00:00,
2013-09-11 10:15:00,58.9,-42.0,29.97,South,190,7.0,11.0,1,0.00,,,0.00,weatherlink.com 1.10,2013-09-11 17:15:00,
2013-09-11 10:30:00,59.2,-42.0,29.97,SSW,195,6.0,11.0,1,0.00,,,0.00,weatherlink.com 1.10,2013-09-11 17:30:00,
2013-09-11 10:45:00,59.7,-42.0,29.97,WSW,244,6.0,10.0,1,0.00,,,0.00,weatherlink.com 1.10,2013-09-11 17:45:00,
2013-09-11 11:00:00,60.3,-41.0,29.96,West,260,8.0,12.0,1,0.00,,,0.00,weatherlink.com 1.10,2013-09-11 18:00:00,
2013-09-11 11:15:00,61.0,24.0,29.97,SW,231,10.0,12.0,24,0.00,,,0.00,weatherlink.com 1.10,2013-09-11 18:15:00,
2013-09-11 11:30:00,61.4,42.0,29.97,SW,231,6.0,12.0,49,0.00,,,0.00,weatherlink.com 1.10,2013-09-11 18:30:00,
2013-09-11 11:45:00,61.5,46.0,29.97,West,276,6.0,11.0,58,0.00,,,0.00,weatherlink.com 1.10,2013-09-11 18:45:00,
2013-09-11 12:00:00,60.9,47.0,29.97,SW,231,7.0,12.0,60,0.00,,,0.00,weatherlink.com 1.10,2013-09-11 19:00:00,
2013-09-11 12:16:00,60.5,45.0,29.97,SSW,204,7.0,10.0,58,0.00,,,0.00,weatherlink.com 1.10,2013-09-11 19:16:00,
2013-09-11 12:31:00,60.3,47.0,29.97,WSW,238,10.0,12.0,63,0.00,,,0.00,weatherlink.com 1.10,2013-09-11 19:31:00,
2013-09-11 12:46:00,60.7,47.0,29.97,WSW,257,10.0,12.0,62,0.00,,,0.00,weatherlink.com 1.10,2013-09-11 19:46:00,
2013-09-11 13:01:00,60.9,50.0,29.97,SW,214,3.0,12.0,67,0.00,,,0.00,weatherlink.com 1.10,2013-09-11 20:01:00,
2013-09-11 13:16:00,60.8,50.0,29.96,WSW,239,8.0,12.0,68,0.00,,,0.00,weatherlink.com 1.10,2013-09-11 20:16:00,
2013-09-11 13:31:00,61.5,53.0,29.96,WSW,257,6.0,11.0,74,0.00,,,0.00,weatherlink.com 1.10,2013-09-11 20:31:00,
2013-09-11 13:46:00,61.4,52.0,29.96,WSW,238,10.0,13.0,71,0.00,,,0.00,weatherlink.com 1.10,2013-09-11 20:46:00,
2013-09-11 14:01:00,61.5,54.0,29.96,SSW,204,8.0,12.0,76,0.00,,,0.00,weatherlink.com 1.10,2013-09-11 21:01:00,
2013-09-11 14:16:00,61.1,54.0,29.96,WSW,238,7.0,14.0,76,0.00,,,0.00,weatherlink.com 1.10,2013-09-11 21:16:00,
2013-09-11 14:31:00,60.9,53.0,29.95,SW,228,12.0,14.0,75,0.00,,,0.00,weatherlink.com 1.10,2013-09-11 21:31:00,
2013-09-11 14:46:00,60.8,54.0,29.95,South,186,9.0,15.0,77,0.00,,,0.00,weatherlink.com 1.10,2013-09-11 21:46:00,
2013-09-11 15:01:00,60.6,53.0,29.94,SW,236,13.0,16.0,76,0.00,,,0.00,weatherlink.com 1.10,2013-09-11 22:01:00,
2013-09-11 15:17:00,60.2,51.0,29.94,SW,228,10.0,16.0,71,0.00,,,0.00,weatherlink.com 1.10,2013-09-11 22:17:00,
2013-09-11 15:32:00,60.2,50.0,29.94,WSW,243,11.0,14.0,70,0.00,,,0.00,weatherlink.com 1.10,2013-09-11 22:32:00,
2013-09-11 15:47:00,60.5,52.0,29.94,WSW,256,13.0,15.0,73,0.00,,,0.00,weatherlink.com 1.10,2013-09-11 22:47:00,
2013-09-11 16:02:00,59.7,49.0,29.94,SW,225,8.0,12.0,67,0.00,,,0.00,weatherlink.com 1.10,2013-09-11 23:02:00,
2013-09-11 16:17:00,59.8,45.0,29.94,WSW,240,8.0,11.0,59,0.00,,,0.00,weatherlink.com 1.10,2013-09-11 23:17:00,
2013-09-11 16:32:00,59.5,44.0,29.93,SSW,212,6.0,11.0,56,0.00,,,0.00,weatherlink.com 1.10,2013-09-11 23:32:00,
2013-09-11 16:47:00,58.7,34.0,29.93,WSW,257,6.0,11.0,39,0.00,,,0.00,weatherlink.com 1.10,2013-09-11 23:47:00,
2013-09-11 17:02:00,58.6,28.0,29.93,WSW,245,4.0,9.0,31,0.00,,,0.00,weatherlink.com 1.10,2013-09-12 00:02:00,
2013-09-11 17:17:00,58.1,9.0,29.93,SW,235,8.0,10.0,14,0.00,,,0.00,weatherlink.com 1.10,2013-09-12 00:17:00,
2013-09-11 17:32:00,58.2,-1.0,29.93,West,277,7.0,10.0,9,0.00,,,0.00,weatherlink.com 1.10,2013-09-12 00:32:00,
2013-09-11 17:47:00,57.8,-31.0,29.93,SW,234,7.0,12.0,2,0.00,,,0.00,weatherlink.com 1.10,2013-09-12 00:47:00,
2013-09-11 18:02:00,57.5,-43.0,29.93,WSW,249,10.0,11.0,1,0.00,,,0.00,weatherlink.com 1.10,2013-09-12 01:02:00,
2013-09-11 18:17:00,57.4,-43.0,29.93,West,273,7.0,11.0,1,0.00,,,0.00,weatherlink.com 1.10,2013-09-12 01:17:00,
2013-09-11 18:32:00,57.2,-43.0,29.93,West,267,5.0,11.0,1,0.00,,,0.00,weatherlink.com 1.10,2013-09-12 01:32:00,
2013-09-11 18:47:00,57.2,-43.0,29.93,SW,236,3.0,11.0,1,0.00,,,0.00,weatherlink.com 1.10,2013-09-12 01:47:00,
2013-09-11 19:02:00,57.1,-43.0,29.93,SW,236,6.0,10.0,1,0.00,,,0.00,weatherlink.com 1.10,2013-09-12 02:02:00,
2013-09-11 19:18:00,57.0,-43.0,29.93,WSW,246,7.0,10.0,1,0.00,,,0.00,weatherlink.com 1.10,2013-09-12 02:18:00,
2013-09-11 19:33:00,56.8,-44.0,29.93,SW,236,5.0,9.0,1,0.00,,,0.00,weatherlink.com 1.10,2013-09-12 02:33:00,
2013-09-11 19:48:00,56.8,-44.0,29.93,SW,236,7.0,9.0,1,0.00,,,0.00,weatherlink.com 1.10,2013-09-12 02:48:00,
2013-09-11 20:18:00,56.9,-44.0,29.93,WSW,238,8.0,9.0,1,0.00,,,0.00,weatherlink.com 1.10,2013-09-12 03:18:00,
2013-09-11 20:33:00,57.0,-43.0,29.94,WNW,292,4.0,9.0,1,0.00,,,0.00,weatherlink.com 1.10,2013-09-12 03:33:00,
2013-09-11 20:48:00,57.0,-43.0,29.94,West,264,4.0,8.0,1,0.00,,,0.00,weatherlink.com 1.10,2013-09-12 03:48:00,
2013-09-11 21:03:00,57.0,-43.0,29.94,WSW,238,4.0,8.0,1,0.00,,,0.00,weatherlink.com 1.10,2013-09-12 04:03:00,
2013-09-11 21:18:00,57.0,-43.0,29.94,WSW,238,5.0,8.0,1,0.00,,,0.00,weatherlink.com 1.10,2013-09-12 04:18:00,
2013-09-11 21:33:00,57.0,-43.0,29.94,SW,225,5.0,7.0,1,0.00,,,0.00,weatherlink.com 1.10,2013-09-12 04:33:00,
2013-09-11 21:48:00,57.0,-43.0,29.94,SSW,212,4.0,7.0,1,0.00,,,0.00,weatherlink.com 1.10,2013-09-12 04:48:00,
2013-09-11 22:03:00,57.0,-43.0,29.94,SW,233,3.0,7.0,1,0.00,,,0.00,weatherlink.com 1.10,2013-09-12 05:03:00,
2013-09-11 22:18:00,57.1,-43.0,29.94,West,274,5.0,9.0,1,0.00,,,0.00,weatherlink.com 1.10,2013-09-12 05:18:00,
2013-09-11 22:33:00,57.1,-43.0,29.94,SW,233,2.0,7.0,1,0.00,,,0.00,weatherlink.com 1.10,2013-09-12 05:33:00,
2013-09-11 22:49:00,57.2,-43.0,29.94,WSW,243,6.0,7.0,1,0.00,,,0.00,weatherlink.com 1.10,2013-09-12 05:49:00,
2013-09-11 23:04:00,57.2,-43.0,29.94,WSW,252,4.0,6.0,1,0.00,,,0.00,weatherlink.com 1.10,2013-09-12 06:04:00,
2013-09-11 23:19:00,57.2,-43.0,29.94,SW,233,7.0,7.0,1,0.00,,,0.00,weatherlink.com 1.10,2013-09-12 06:19:00,
2013-09-11 23:34:00,57.4,-43.0,29.93,WSW,243,5.0,8.0,1,0.00,,,0.00,weatherlink.com 1.10,2013-09-12 06:34:00,
2013-09-11 23:49:00,57.2,-43.0,29.93,WSW,239,4.0,7.0,1,0.00,,,0.00,weatherlink.com 1.10,2013-09-12 06:49:00,